World > North America > United States > California > Sonoma  

Sonoma, CA Hourly Weather Forecast

Feedback E-mail the Weather

Quick Clicks

Weather World

24 Hour Forecast

Current Conditions - Overcast. Temperature is 52°F11°C, dew point 49°F9°C, humidity 89%. Wind direction is WSW at 8 mph13 km/h with visibility of 9 mi14 km. Barometric pressure is 29.98 in1015 mb.
Today - Partly cloudy in the morning then becoming sunny. Patchy fog in the morning. Highs in the 60s to 70s. Southwest winds 5 to 15 mph... Full Forecast
Tonight - Mostly clear in the evening then becoming mostly cloudy. Lows in the mid 40s to lower 50s. Southwest winds 5 to 15 mph... Full Forecast

Sonoma Hourly Weather

24 Hour Weather Scroll
Fri, Apr 19
8:00 am
Fri, Apr 19
9:00 am
Fri, Apr 19
10:00 am
Fri, Apr 19
11:00 am
Fri, Apr 19
Noon
Fri, Apr 19
1:00 pm
Fri, Apr 19
2:00 pm
Fri, Apr 19
3:00 pm
Fri, Apr 19
4:00 pm
Fri, Apr 19
5:00 pm
Fri, Apr 19
6:00 pm
Fri, Apr 19
7:00 pm
Fri, Apr 19
8:00 pm
Fri, Apr 19
9:00 pm
Fri, Apr 19
10:00 pm
Fri, Apr 19
11:00 pm
Sat, Apr 20
Midnight
Sat, Apr 20
1:00 am
Sat, Apr 20
2:00 am
Sat, Apr 20
3:00 am
Sat, Apr 20
4:00 am
Sat, Apr 20
5:00 am
Sat, Apr 20
6:00 am
Sat, Apr 20
7:00 am
OvercastSunnySunnySunnySunnySunnySunnySunnySunnySunnySunnySunnyClear Clear Clear Partly Cloudy Overcast Partly Cloudy Clear Clear Clear Cloudy Clear Sunny
Overcast Sunny Sunny Sunny Sunny Sunny Sunny Sunny Sunny Sunny Sunny Sunny Clear Clear Clear Partly Cloudy Overcast Partly Cloudy Clear Clear Clear Cloudy Clear Sunny
52°F11°C 59°F15°C 64°F18°C 67°F20°C 70°F21°C 72°F22°C 73°F23°C 72°F22°C 71°F22°C 68°F20°C 65°F18°C 60°F16°C 56°F13°C 53°F12°C 51°F11°C 50°F10°C 49°F10°C 48°F9°C 47°F8°C 47°F8°C 46°F8°C 46°F8°C 47°F8°C 49°F10°C
47°F
8°C
49°F
10°C
53°F
12°C
55°F
13°C
56°F
13°C
56°F
13°C
56°F
14°C
57°F
14°C
56°F
13°C
54°F
12°C
53°F
12°C
54°F
12°C
51°F
11°C
50°F
10°C
48°F
9°C
46°F
8°C
46°F
8°C
46°F
8°C
45°F
7°C
44°F
7°C
44°F
7°C
44°F
7°C
44°F
7°C
44°F
7°C
29.97 in
1015 mb
29.94 in
1014 mb
29.94 in
1014 mb
29.94 in
1014 mb
29.94 in
1014 mb
29.91 in
1013 mb
29.91 in
1013 mb
29.91 in
1013 mb
29.91 in
1013 mb
29.91 in
1013 mb
29.91 in
1013 mb
29.91 in
1013 mb
29.91 in
1013 mb
29.94 in
1014 mb
29.94 in
1014 mb
29.94 in
1014 mb
29.94 in
1014 mb
29.94 in
1014 mb
29.97 in
1015 mb
29.97 in
1015 mb
29.97 in
1015 mb
29.97 in
1015 mb
30 in
1016 mb
30.03 in
1017 mb
89%73%67%62%58%55%54%56%58%58%63%76%87%91%91%92%92%89%93%94%93%92%92%89%
WSWSWSSSSWSSWSWWSWWSWWSWWWSWWWWWWWSWWWWWWNWWNW
8 mph
13 km/h
2 mph
3 km/h
2 mph
4 km/h
3 mph
5 km/h
4 mph
6 km/h
4 mph
6 km/h
5 mph
8 km/h
6 mph
10 km/h
7 mph
12 km/h
7 mph
11 km/h
6 mph
10 km/h
4 mph
6 km/h
4 mph
6 km/h
3 mph
5 km/h
3 mph
5 km/h
3 mph
4 km/h
2 mph
3 km/h
2 mph
3 km/h
2 mph
4 km/h
2 mph
4 km/h
2 mph
4 km/h
2 mph
4 km/h
2 mph
4 km/h
2 mph
4 km/h
0%0%0%0%0%0%0%0%0%0%0%0%0%0%0%0%0%0%0%0%0%0%0%0%
9 mi
14 km
6 mi
10 km
6 mi
10 km
6 mi
10 km
6 mi
10 km
6 mi
10 km
6 mi
10 km
6 mi
10 km
6 mi
10 km
6 mi
10 km
6 mi
10 km
6 mi
10 km
6 mi
10 km
6 mi
10 km
6 mi
10 km
6 mi
10 km
6 mi
10 km
6 mi
10 km
6 mi
10 km
6 mi
10 km
6 mi
10 km
6 mi
10 km
6 mi
10 km
6 mi
10 km

Day/Time
Weather
Condition
Temperature
Dew Point
Pressure
Humidity
Wind Direction
Wind Speed
Prob Precip %
Visibility
POP = Probability of Precipitation. ** Indicates missing data/values from KAPC model statistics.

Trending Headlines

Trending Entertainment Headlines

Sonoma Radar Loop

Use the map search tool if you want to place a location marker on the radar map...

48 Hour API Forecast

Prob Precip % = Probability of Precipitation.

Sonoma 36 Hour Forecast

POP = Probability of Precipitation. ** Indicates missing data/values from model statistics.

E-mail the Sonoma Weather Forecast

Voice your opinion or tell us about page issues...

Sonoma CA Weather - 11:29 am

What are people saying?

Contact Us